Regional Weather Roundup
Issued by NWS

Home | Current Version | Previous Version | Graphics & Text | Print | Product List | Glossary Off
Versions: 1 2 3 4 5 6 7 8 9 10 11 12 13 14 15 16 17 18 19 20 21 22 23 24 25 26 27

000
ASUS45 KCYS 240710
RWRWY

WYOMING REGIONAL WEATHER ROUNDUP
NATIONAL WEATHER SERVICE CHEYENNE WY
100 AM MDT THU APR 24 2014

NOTE:  "FAIR" INDICATES FEW OR NO CLOUDS BELOW 12,000 FEET
WITH NO SIGNIFICANT WEATHER AND/OR OBSTRUCTIONS TO VISIBILITY.

WYZ001-240800-
YELLOWSTONE NATIONAL PARK

CITY           SKY/WX    TMP DP  RH WIND       PRES   REMARKS
LK YELLOWSTONE   N/A     25  19  78 VRB6      29.98F WCI  18
W YELLOWSTONE  NOT AVBL

$$
WYZ002>013-054>058-071-098>099-240800-
NORTHERN WYOMING

CITY           SKY/WX    TMP DP  RH WIND       PRES   REMARKS
JACKSON        CLOUDY    34  21  60 S9        30.02R WCI  26
CODY           PTCLDY    39  19  45 SW12      29.88R WCI  32
GREYBULL       CLEAR     37  21  52 SE7       29.88S WCI  32
WORLAND        PTCLDY    32  17  54 SE12      29.90R WCI  23
SHERIDAN         N/A     30  12  47 W12         N/A  WCI  21
BUFFALO        PTCLDY    39  11  31 SE6       29.87R WCI  35
GILLETTE       CLEAR     35  25  66 SW10      29.87R WCI  27
HULETT         FAIR      36  23  60 SW7       29.86  WCI  30
NEWCASTLE      FAIR      34  27  75 CALM      29.90

$$
WYZ014>020-022>026-101>103-240800-
CENTRAL WYOMING

CITY           SKY/WX    TMP DP  RH WIND       PRES   REMARKS
BIG PINEY      CLEAR     24  14  65 NE3       30.05S
PINEDALE       MOSUNNY   23  19  86 W5        30.05S WCI  17
DUBOIS         FAIR      30  16  55 W30G40    29.92S WCI  15
LANDER         PTCLDY    37  14  38 SW6       29.95R WCI  32
RIVERTON       PTCLDY    33  16  49 W9        29.96S WCI  25
CASPER         CLEAR     30  12  47 W5        29.94R WCI  25
DOUGLAS        CLEAR     34  25  69 CALM      29.95R

$$
WYZ021-027>030-104>119-240800-
SOUTHERN WYOMING

CITY           SKY/WX    TMP DP  RH WIND       PRES   REMARKS
EVANSTON       CLEAR     27  15  61 SW10      30.08S WCI  17
FORT BRIDGER   FAIR      32  17  55 SW13G20   30.11S WCI  22
ROCK SPRINGS   CLEAR     30  14  51 SW13      30.06S WCI  20
DIXON          FAIR      22  18  84 NE3       30.10R
RAWLINS        CLEAR     32  14  47 W18G28    30.01S WCI  20
SARATOGA       FAIR      30  14  51 W13       30.04S WCI  20
LARAMIE        PTCLDY    27   8  44 NW14      29.98R WCI  16
CHEYENNE       CLOUDY    38   7  27 NW21G30   29.96R WCI  28
TORRINGTON     CLOUDY    41  34  76 NW7       29.91S
PINE BLUFFS    FAIR      41  10  28 NW13      29.94F

$$



USA.gov is the U.S. government's official web portal to all federal, state and local government web resources and services.